{"data":{"norad_id":65525,"epoch":"2026-05-25T02:25:51.900096Z","epoch_age_seconds":66167,"freshness":"FRESH","line1":"1 65525U 25200F   26145.10129514  .00002396  00000+0  17003-3 0  9996","line2":"2 65525  97.4484 214.6743 0001810 152.0049 208.1276 15.05655208 40624","mean_motion":15.05655208,"eccentricity":0.000181,"inclination_deg":97.4484,"raan_deg":214.6743,"arg_perigee_deg":152.0049,"mean_anomaly_deg":208.1276,"bstar":0.00017003,"rev_number":4062,"period_min":95.639426101597,"perigee_km":548.24127763708,"apogee_km":550.7490804859,"semimajor_km":6927.6321790615,"source":"CELESTRAK","updated_at":"2026-05-25T13:38:20.847105Z"}}